RH
85 93 94 86 86 89 88 88 90 92 91 95 96 96 96 91 95 96 94 93 97 96 96 95 95 95 96 96 94 93 90 92 85 84 85 84 87 88 88 87 87 87 85
86 91 97 98 96 92 90 89 90 90 89 92 95 94 94 94 96 95 97 96 96 98 97 96 94 95 95 93 94 95 94 94 92 84 91 96 93 91 90 93 87 81 84
84 88 93 95 98 98 96 92 91 91 91 91 96 96 91 95 94 95 96 97 96 95 94 97 95 96 97 96 97 96 97 97 97 97 96 96 95 98 95 93 87 91 91
84 87 91 94 95 98 97 95 94 92 91 90 94 96 96 96 96 96 96 97 96 96 96 96 96 98 98 98 98 96 97 97 97 96 96 99 96 95 94 92 93 89 88
86 88 91 89 89 93 97 96 93 92 91 89 93 96 97 97 96 98 96 97 97 97 96 95 94 94 99 98 96 98 99 99 99 98 99 99 97 98 94 91 89 88 95
87 89 88 88 88 92 93 96 94 93 92 94 95 96 93 85 98 99 100 98 98 98 98 98 95 100 100 100 100 100 97 99 98 98 97 98 95 91 93 94 92 96 99
89 87 87 88 90 91 90 92 94 96 96 95 93 90 91 90 97 97 99 97 98 98 98 98 98 93 100 97 99 99 98 98 100 97 96 94 94 96 96 95 95 95 98
93 91 89 90 91 91 91 93 96 95 96 96 95 93 94 92 98 98 100 93 94 94 95 95 96 95 96 98 98 97 97 97 97 93 98 99 99 96 96 97 97 98 98
96 96 96 93 96 93 98 96 95 96 96 97 94 94 96 97 98 100 95 94 95 97 94 95 94 96 98 98 97 98 98 98 94 93 94 94 93 94 96 99 100 100 100
97 97 97 98 98 99 99 99 99 99 99 97 96 96 97 97 98 96 94 93 97 97 97 97 98 98 99 100 96 97 98 98 98 96 95 93 93 93 94 98 100 100 98
89 95 96 96 97 98 98 99 100 100 100 100 97 96 97 98 99 98 96 97 98 96 97 98 98 97 97 97 95 96 98 96 98 96 96 96 94 93 92 92 95 96 97
85 88 91 93 93 94 95 97 97 98 97 97 97 96 97 97 98 96 98 99 99 95 98 98 97 93 93 94 95 96 96 96 97 97 96 96 95 92 88 85 87 86 86
85 87 88 87 91 92 94 94 93 96 96 96 95 95 96 98 98 98 96 95 96 96 97 96 95 94 92 94 95 96 96 96 97 96 97 97 92 90 92 83 80 86 81
90 84 82 85 87 88 85 88 92 94 93 93 95 96 97 97 97 97 97 96 96 96 97 97 97 96 95 95 95 96 96 95 94 92 94 97 96 95 96 94 82 79 73
86 89 91 82 83 84 90 93 92 97 96 96 97 97 96 98 99 97 96 97 97 98 94 93 94 94 94 92 91 91 92 90 90 92 92 90 88 84 83 81 72 68 75
84 89 94 97 91 88 86 90 87 88 88 92 92 94 97 94 92 91 92 92 92 91 93 95 96 96 96 96 95 94 93 90 90 88 89 88 87 84 79 76 73 73 72
90 93 95 94 95 96 96 93 96 89 86 88 88 89 89 86 86 86 85 85 84 83 93 95 96 96 95 92 93 93 94 92 86 86 87 88 83 81 81 80 81 80 74
96 96 97 98 99 98 99 99 98 98 97 97 91 90 82 77 75 74 74 77 88 87 92 94 96 93 89 88 88 90 90 90 89 88 90 92 93 88 87 82 82 89 81
96 97 98 98 97 98 97 97 98 97 97 97 96 90 90 80 82 83 84 93 95 94 92 92 94 93 92 90 95 94 94 94 93 93 92 90 94 86 89 87 85 88 86
96 96 96 98 98 97 98 97 97 97 96 96 96 97 95 89 94 96 95 95 96 96 95 93 93 94 96 96 97 97 95 95 95 94 97 96 96 92 93 92 93 92 88
98 98 100 97 98 98 98 99 98 97 96 96 97 96 94 94 96 96 96 97 97 96 98 96 97 97 96 96 94 95 94 97 96 97 97 97 98 97 95 96 95 93 87
98 97 97 99 97 97 98 98 99 99 98 96 98 96 94 96 96 94 95 97 98 97 98 98 97 96 96 96 96 97 98 100 99 99 98 97 96 96 97 96 96 98 96
97 97 98 97 98 98 98 97 98 98 98 98 98 97 97 99 99 98 100 100 96 96 96 96 97 96 96 97 97 98 98 100 100 100 100 100 97 97 100 98 98 99 99
96 98 95 96 96 98 100 100 99 98 98 100 100 98 98 100 100 100 100 100 100 100 100 99 96 96 95 100 99 99 98 100 99 100 100 100 100 99 100 99 99 100 100
97 98 98 99 98 97 98 98 100 100 100 98 99 99 99 99 98 100 100 100 99 98 98 100 99 96 95 95 98 96 97 100 100 100 100 100 100 99 99 99 100 100 100
97 98 99 98 99 100 99 98 98 98 99 100 100 100 100 98 98 99 99 100 100 99 97 100 97 95 96 98 97 99 99 100 100 100 100 99 98 100 100 100 100 100 100
Wind_Speed
17 16 7 11 11 13 14 13 14 12 13 14 13 13 12 13 11 11 11 10 11 10 8 10 10 9 8 7 7 7 8 5 8 3 2 5 5 5 4 5 5 6 5
17 17 11 5 4 12 11 13 12 13 12 13 13 13 12 12 12 12 11 11 12 11 11 11 12 8 11 11 8 9 7 5 4 8 4 4 4 2 3 6 5 6 7
17 16 15 14 8 5 8 9 11 11 11 10 11 11 13 11 11 11 12 11 12 11 11 11 11 11 11 8 9 9 8 6 5 3 4 2 3 2 5 4 5 6 5
17 17 15 15 14 5 4 9 11 11 12 12 10 10 10 10 9 10 10 10 10 9 10 10 9 10 9 8 8 9 9 8 7 8 7 3 4 6 6 7 6 3 4
17 17 17 16 15 15 3 5 9 11 10 10 10 9 8 8 4 8 10 9 9 8 9 9 9 10 11 10 6 7 6 6 4 6 4 3 4 3 8 5 8 4 2
17 17 17 16 16 15 14 10 5 9 10 9 9 8 8 6 4 4 5 7 8 9 8 7 7 8 9 10 11 7 4 8 8 6 5 5 9 7 4 5 6 4 4
16 18 17 18 16 16 14 17 14 14 8 11 9 8 8 6 6 5 2 5 6 4 4 5 4 3 5 7 11 12 12 11 5 3 7 8 6 4 3 4 4 3 3
18 17 17 16 16 14 13 17 14 14 13 12 12 11 8 7 12 2 6 8 8 8 7 6 4 4 3 1 9 8 8 9 5 4 5 5 3 2 1 2 3 6 4
18 17 16 16 15 15 15 14 14 14 13 13 12 14 12 11 17 7 10 10 10 10 9 9 6 4 6 2 10 11 9 9 14 20 19 16 15 13 3 3 3 3 2
15 15 15 15 14 13 11 11 10 14 9 11 12 15 18 12 18 17 12 7 10 8 7 8 15 7 5 6 6 9 10 7 7 6 6 11 12 12 16 7 2 1 4
13 13 14 15 14 13 11 13 12 11 10 8 13 13 15 15 16 20 19 10 7 7 7 8 8 18 20 19 14 8 7 9 8 7 8 8 8 9 8 8 7 4 4
12 13 13 13 11 10 14 12 12 10 11 9 11 9 10 13 20 24 24 21 15 10 10 7 11 23 26 23 16 19 17 10 6 6 7 8 7 7 5 8 9 9 9
10 11 11 12 12 12 13 11 10 10 8 8 8 7 9 9 8 21 24 23 21 13 11 14 20 23 22 19 22 17 10 6 7 7 7 6 6 3 2 6 7 7 10
11 8 9 10 12 12 9 9 10 9 8 9 8 7 7 7 7 6 6 8 15 11 11 10 12 14 16 12 11 11 8 6 5 7 6 2 2 2 2 2 6 5 6
10 10 6 7 8 9 10 11 9 11 10 6 6 7 7 7 9 12 10 8 7 8 8 8 8 8 9 8 8 9 8 6 6 6 6 5 5 5 5 4 5 6 6
10 8 7 4 4 5 5 6 19 18 23 22 19 10 9 17 18 18 19 19 17 13 8 7 7 7 8 7 7 7 7 7 6 6 5 5 5 5 5 5 5 5 6
9 8 6 7 5 3 4 5 6 8 19 22 22 21 18 17 18 18 18 20 18 13 8 7 6 6 6 6 5 6 6 6 6 7 5 5 5 5 5 5 4 5 5
7 9 5 5 4 4 4 4 4 5 5 6 13 17 19 19 18 16 14 13 9 10 8 7 7 6 6 6 6 6 6 6 6 5 5 4 4 5 5 6 5 4 4
7 5 5 5 5 5 4 4 4 5 5 4 4 8 10 16 19 20 19 8 7 7 7 7 6 6 6 6 6 6 6 6 5 5 4 5 4 5 5 4 5 6 4
6 8 6 4 4 4 4 4 4 4 5 5 6 5 5 7 8 8 8 7 7 6 6 6 6 6 6 5 5 4 5 6 5 6 5 4 3 4 4 5 4 4 4
4 4 5 4 4 4 3 3 2 3 4 5 5 6 9 7 6 6 6 6 6 6 5 6 5 6 5 5 5 5 5 4 5 5 4 4 4 4 3 4 4 4 3
4 4 4 3 3 4 3 3 2 3 3 4 4 6 8 5 5 5 5 5 4 5 4 4 5 6 5 5 4 4 5 5 5 4 4 4 4 4 4 3 3 3 3
5 5 5 4 3 3 4 4 3 3 3 3 3 4 4 4 4 4 3 2 4 4 4 4 5 5 5 5 4 4 5 3 2 1 3 4 4 4 3 3 3 3 3
5 5 6 5 5 4 3 3 3 4 3 3 3 3 3 3 3 3 2 2 3 2 3 3 4 5 4 4 3 3 3 2 2 2 3 3 3 3 3 3 3 2 2
4 4 4 4 5 4 4 4 3 3 3 3 2 2 2 2 3 2 2 2 2 3 3 3 3 5 6 6 5 6 5 6 5 4 2 4 5 4 3 2 2 2 2
4 4 3 3 4 3 3 3 3 3 3 3 2 2 2 2 2 2 1 3 2 2 3 2 5 6 5 4 4 5 5 5 5 5 3 3 4 3 2 3 3 2 2
Wind_Direction
336 330 281 217 198 182 183 186 175 175 170 171 177 178 176 187 182 182 185 187 193 190 189 191 194 180 188 195 198 198 208 179 219 235 176 183 159 168 145 222 189 187 207
342 345 353 13 228 194 186 185 176 175 176 169 171 179 180 186 182 184 183 190 193 192 192 194 201 192 194 194 193 190 191 180 170 209 180 189 180 169 179 217 213 204 214
354 355 360 1 358 255 171 177 173 162 172 162 164 174 184 185 181 194 190 192 195 199 198 201 206 196 204 206 207 204 199 195 198 177 194 167 195 157 213 228 229 218 211
0 3 5 358 348 309 215 160 160 164 165 158 158 158 173 174 184 189 185 185 189 192 196 196 195 192 198 198 202 211 205 204 210 221 222 172 188 200 202 209 234 233 230
11 7 3 359 359 4 304 174 154 157 157 164 155 154 165 158 153 184 181 184 186 188 197 199 196 199 195 192 192 191 184 194 190 201 185 169 166 172 197 194 215 202 100
17 11 7 5 14 15 11 350 171 155 153 154 162 150 128 102 76 57 196 177 180 187 191 192 194 190 195 190 196 184 189 201 201 191 197 205 213 207 175 192 196 160 195
10 15 8 17 14 22 18 32 20 20 39 64 68 81 80 68 0 102 5 189 185 179 176 191 171 116 190 190 107 99 70 51 41 235 206 215 217 176 149 184 178 167 147
6 7 13 13 21 21 30 49 23 35 41 42 47 47 45 15 341 144 117 98 85 69 55 41 80 100 46 176 141 102 74 49 24 49 56 66 44 11 38 43 101 101 79
8 1 1 14 14 20 25 37 45 44 37 48 42 42 36 16 6 65 109 104 92 75 59 46 44 46 2 194 133 122 106 90 74 79 81 76 65 56 46 136 148 122 122
6 3 3 3 22 8 11 30 43 57 40 51 37 51 33 33 27 50 58 75 99 96 71 52 44 58 50 114 119 135 125 118 111 94 65 51 45 40 50 33 46 133 117
10 12 12 11 12 12 11 25 30 40 32 28 54 42 52 28 41 54 67 66 56 68 58 71 52 67 70 78 77 83 101 113 97 86 86 68 47 49 33 46 26 60 95
20 17 17 18 18 12 18 20 34 31 40 21 57 34 52 42 43 56 58 73 75 74 63 33 71 76 80 77 76 89 96 93 84 83 79 85 73 62 42 62 58 60 58
32 20 21 26 26 18 23 23 31 30 31 35 42 37 40 49 45 51 65 65 64 67 69 59 59 61 62 73 69 58 57 68 88 84 77 60 80 112 92 73 67 53 56
15 34 23 26 32 32 33 32 33 25 27 28 28 35 48 46 38 29 46 56 65 67 64 59 58 61 58 45 66 61 55 56 74 89 78 58 55 347 26 52 86 82 75
13 14 27 28 27 32 35 35 36 43 45 37 30 43 46 58 55 64 62 63 55 49 71 58 52 53 59 43 49 50 51 47 53 60 69 70 57 54 47 70 82 65 72
17 10 10 22 28 24 27 31 38 49 47 49 52 50 55 63 68 66 68 70 68 63 60 60 64 58 60 51 47 54 48 46 38 58 58 72 68 57 50 43 53 78 85
13 10 5 12 17 62 24 37 31 19 45 47 46 51 63 67 65 67 69 69 68 65 69 64 56 52 64 68 50 57 57 44 49 58 51 45 67 72 64 57 54 75 78
4 8 6 2 8 26 29 29 27 23 19 14 28 45 53 56 57 61 69 66 56 47 51 54 55 53 52 53 48 50 49 45 46 43 48 52 58 67 64 61 53 63 73
3 10 5 6 14 33 32 37 31 29 28 19 8 33 30 51 55 51 50 51 60 54 49 50 45 48 51 55 57 49 53 48 40 48 38 50 37 65 63 61 73 61 56
6 5 19 6 7 26 34 46 40 36 32 35 35 27 20 34 37 34 35 43 48 46 48 54 44 46 47 49 44 43 49 40 34 34 35 40 33 64 70 73 66 68 57
350 356 9 21 21 18 35 48 50 55 50 47 42 39 52 59 46 41 38 35 40 42 42 50 41 40 42 48 51 57 59 47 37 32 25 24 22 55 47 68 69 59 53
356 4 2 22 12 19 18 51 64 65 56 71 56 50 51 62 65 57 50 42 31 41 32 56 61 54 45 47 51 58 58 48 33 20 16 23 32 38 55 61 57 50 33
6 9 13 13 20 38 34 36 51 60 63 57 63 67 60 59 61 74 66 30 55 50 34 53 69 67 51 51 47 52 61 41 13 347 30 26 35 35 37 55 54 51 36
15 19 25 13 22 29 39 46 44 68 75 75 77 80 83 78 79 73 78 64 68 44 49 58 67 85 76 52 40 39 55 55 21 37 43 43 39 52 61 62 54 56 37
21 20 25 18 20 14 22 35 34 40 48 48 58 90 105 109 100 74 57 69 94 74 56 67 77 93 85 76 61 48 26 29 32 20 7 44 67 60 64 79 55 25 34
24 29 25 14 18 13 33 40 25 37 49 37 62 60 83 93 84 79 50 66 86 81 84 94 109 111 106 95 93 56 39 22 15 23 26 60 61 45 70 82 54 42 52